| time (UTC) | temp F | wind direction | speed MPH | gust MPH | rain 1hr in | rain 24hr in | rain mn in | humidity % | barometer mb |
| 20260901040017 | 80 | 0.0 | 3.0 | 0.00 | 0.00 | 0.00 | 65 | 1014.0 | |
| 20260901035017 | 79 | 0.0 | 1.0 | 0.00 | 0.00 | 0.00 | 64 | 1013.9 | |
| 20260901034017 | 80 | 0.0 | 1.0 | 0.00 | 0.00 | 0.00 | 63 | 1013.9 | |
| 20260901033016 | 80 | 0.0 | 2.0 | 0.00 | 0.00 | 0.00 | 63 | 1013.5 | |
| 20260901032041 | 80 | 0.0 | 0.0 | 0.00 | 0.00 | 0.00 | 63 | 1013.6 | |
| 20260901031056 | 80 | 0.0 | 0.0 | 0.00 | 0.00 | 0.00 | 62 | 1013.5 | |
| 20260901030016 | 81 | 0.0 | 0.0 | 0.00 | 0.00 | 0.00 | 61 | 1013.2 | |
| 20260901025017 | 81 | 0.0 | 0.0 | 0.00 | 0.00 | 0.00 | 60 | 1013.2 | |
| 20260901024018 | 82 | 0.0 | 0.0 | 0.00 | 0.00 | 0.00 | 59 | 1013.1 | |
| 20260901023017 | 82 | 0.0 | 0.0 | 0.00 | 0.00 | 0.00 | 58 | 1012.8 | |
| 20260901022036 | 83 | 0.0 | 0.0 | 0.00 | 0.00 | 0.00 | 58 | 1012.6 | |
| 20260901021017 | 83 | 0.0 | 0.0 | 0.00 | 0.00 | 0.00 | 57 | 1012.5 | |
| 20260901020016 | 84 | 0.0 | 0.0 | 0.00 | 0.00 | 0.00 | 55 | 1012.4 | |
| 20260901015017 | 85 | 0.0 | 0.0 | 0.00 | 0.00 | 0.00 | 54 | 1012.4 | |
| 20260901014018 | 85 | 0.0 | 0.0 | 0.00 | 0.00 | 0.00 | 53 | 1012.5 | |
| 20260901013017 | 86 | 0.0 | 0.0 | 0.00 | 0.00 | 0.00 | 52 | 1012.4 | |
| 20260901012022 | 87 | 0.0 | 1.0 | 0.00 | 0.00 | 0.00 | 51 | 1012.3 | |
| 20260901011017 | 87 | 0.0 | 5.0 | 0.00 | 0.00 | 0.00 | 50 | 1012.2 | |
| 20260901010018 | 88 | 0.0 | 3.0 | 0.00 | 0.00 | 0.00 | 48 | 1012.2 | |
| 20260901005017 | 89 | 0.0 | 4.0 | 0.00 | 0.00 | 0.00 | 47 | 1012.3 | |
| 20260901004017 | 90 | 158 | 1.0 | 3.0 | 0.00 | 0.00 | 0.00 | 45 | 1012.2 |
| 20260901003017 | 91 | 158 | 1.0 | 4.0 | 0.00 | 0.00 | 0.00 | 43 | 1012.2 |
| 20260901002017 | 91 | 180 | 1.0 | 4.0 | 0.00 | 0.00 | 0.00 | 43 | 1012.2 |
| 20260901001017 | 92 | 113 | 1.0 | 4.0 | 0.00 | 0.00 | 0.00 | 42 | 1012.1 |
| 20260901000017 | 93 | 113 | 2.0 | 5.0 | 0.00 | 0.00 | 0.00 | 41 | 1012.1 |
| 20260831235037 | 93 | 135 | 2.0 | 5.0 | 0.00 | 0.00 | 0.00 | 40 | 1012.1 |
| 20260831234017 | 94 | 113 | 1.0 | 6.0 | 0.00 | 0.00 | 0.00 | 39 | 1012.2 |
| 20260831233017 | 95 | 113 | 2.0 | 5.0 | 0.00 | 0.00 | 0.00 | 38 | 1012.1 |
| 20260831232018 | 95 | 90 | 1.0 | 3.0 | 0.00 | 0.00 | 0.00 | 39 | 1012.2 |
| 20260831231017 | 95 | 135 | 2.0 | 11.0 | 0.00 | 0.00 | 0.00 | 38 | 1012.1 |
| 20260831230017 | 96 | 135 | 3.0 | 9.0 | 0.00 | 0.00 | 0.00 | 39 | 1012.2 |
| 20260831225017 | 96 | 135 | 2.0 | 7.0 | 0.00 | 0.00 | 0.00 | 42 | 1012.2 |
| 20260831224017 | 95 | 113 | 2.0 | 10.0 | 0.00 | 0.00 | 0.00 | 41 | 1012.3 |
| 20260831223021 | 95 | 135 | 3.0 | 8.0 | 0.00 | 0.00 | 0.00 | 41 | 1012.3 |
| 20260831222017 | 94 | 135 | 2.0 | 6.0 | 0.00 | 0.00 | 0.00 | 42 | 1012.3 |
| 20260831221018 | 96 | 135 | 3.0 | 12.0 | 0.00 | 0.00 | 0.00 | 39 | 1012.6 |
| 20260831220017 | 97 | 90 | 3.0 | 9.0 | 0.00 | 0.00 | 0.00 | 38 | 1012.7 |
| 20260831215017 | 97 | 68 | 3.0 | 6.0 | 0.00 | 0.00 | 0.00 | 38 | 1012.7 |
| 20260831214018 | 98 | 68 | 2.0 | 6.0 | 0.00 | 0.00 | 0.00 | 38 | 1013.0 |
| 20260831213016 | 98 | 68 | 2.0 | 7.0 | 0.00 | 0.00 | 0.00 | 39 | 1013.1 |
| 20260831212042 | 97 | 113 | 3.0 | 8.0 | 0.00 | 0.00 | 0.00 | 39 | 1013.1 |
| 20260831211017 | 97 | 135 | 2.0 | 6.0 | 0.00 | 0.00 | 0.00 | 38 | 1013.3 |
| 20260831210017 | 97 | 135 | 3.0 | 7.0 | 0.00 | 0.00 | 0.00 | 38 | 1013.4 |
| 20260831205039 | 97 | 180 | 3.0 | 9.0 | 0.00 | 0.00 | 0.00 | 40 | 1013.6 |
| 20260831204017 | 97 | 113 | 2.0 | 9.0 | 0.00 | 0.00 | 0.00 | 40 | 1013.9 |
| 20260831203016 | 97 | 180 | 3.0 | 9.0 | 0.00 | 0.00 | 0.00 | 41 | 1014.0 |
| 20260831202017 | 97 | 135 | 3.0 | 9.0 | 0.00 | 0.00 | 0.00 | 41 | 1014.1 |
| 20260831201021 | 97 | 135 | 3.0 | 11.0 | 0.00 | 0.00 | 0.00 | 41 | 1014.3 |
| 20260831200038 | 97 | 113 | 3.0 | 10.0 | 0.00 | 0.00 | 0.00 | 40 | 1014.5 |
| 20260831195017 | 98 | 158 | 3.0 | 8.0 | 0.00 | 0.00 | 0.00 | 41 | 1014.7 |
| 20260831194036 | 97 | 135 | 3.0 | 10.0 | 0.00 | 0.00 | 0.00 | 41 | 1014.9 |
| 20260831193016 | 97 | 225 | 3.0 | 10.0 | 0.00 | 0.00 | 0.00 | 41 | 1015.1 |
| 20260831192017 | 97 | 135 | 2.0 | 9.0 | 0.00 | 0.00 | 0.00 | 42 | 1015.2 |
| 20260831191016 | 96 | 135 | 2.0 | 7.0 | 0.00 | 0.00 | 0.00 | 44 | 1015.3 |
| 20260831190057 | 96 | 135 | 2.0 | 9.0 | 0.00 | 0.00 | 0.00 | 42 | 1015.2 |
| 20260831185036 | 96 | 158 | 2.0 | 5.0 | 0.00 | 0.00 | 0.00 | 45 | 1015.4 |
| 20260831184017 | 96 | 113 | 2.0 | 7.0 | 0.00 | 0.00 | 0.00 | 46 | 1015.4 |
| 20260831183016 | 95 | 135 | 3.0 | 9.0 | 0.00 | 0.00 | 0.00 | 48 | 1015.6 |
| 20260831182017 | 95 | 180 | 3.0 | 10.0 | 0.00 | 0.00 | 0.00 | 46 | 1015.6 |
| 20260831181037 | 95 | 135 | 3.0 | 7.0 | 0.00 | 0.00 | 0.00 | 46 | 1015.7 |
| 20260831180018 | 95 | 135 | 2.0 | 6.0 | 0.00 | 0.00 | 0.00 | 47 | 1015.6 |
| 20260831175018 | 95 | 203 | 2.0 | 8.0 | 0.00 | 0.00 | 0.00 | 49 | 1015.6 |
| 20260831174018 | 94 | 90 | 2.0 | 6.0 | 0.00 | 0.00 | 0.00 | 50 | 1015.8 |
| 20260831173038 | 93 | 180 | 3.0 | 9.0 | 0.00 | 0.00 | 0.00 | 50 | 1015.8 |
| 20260831172039 | 92 | 45 | 2.0 | 6.0 | 0.00 | 0.00 | 0.00 | 52 | 1015.8 |
| 20260831171018 | 92 | 113 | 3.0 | 10.0 | 0.00 | 0.00 | 0.00 | 53 | 1015.9 |
| 20260831170018 | 92 | 135 | 3.0 | 10.0 | 0.00 | 0.00 | 0.00 | 55 | 1016.0 |
| 20260831165016 | 92 | 90 | 2.0 | 6.0 | 0.00 | 0.00 | 0.00 | 55 | 1015.9 |
| 20260831164017 | 90 | 90 | 3.0 | 10.0 | 0.00 | 0.00 | 0.00 | 57 | 1015.8 |
| 20260831163018 | 90 | 135 | 2.0 | 6.0 | 0.00 | 0.00 | 0.00 | 58 | 1015.8 |
| 20260831162018 | 89 | 158 | 2.0 | 7.0 | 0.00 | 0.00 | 0.00 | 60 | 1015.9 |
| 20260831161019 | 88 | 113 | 3.0 | 10.0 | 0.00 | 0.00 | 0.00 | 61 | 1015.7 |
| 20260831160018 | 87 | 135 | 3.0 | 7.0 | 0.00 | 0.00 | 0.00 | 63 | 1015.7 |
| 20260831155037 | 86 | 135 | 3.0 | 10.0 | 0.00 | 0.00 | 0.00 | 64 | 1015.7 |
| 20260831154038 | 85 | 135 | 2.0 | 7.0 | 0.00 | 0.00 | 0.00 | 66 | 1015.5 |
| 20260831153018 | 84 | 158 | 2.0 | 9.0 | 0.00 | 0.00 | 0.00 | 70 | 1015.5 |
| 20260831152037 | 83 | 135 | 3.0 | 10.0 | 0.00 | 0.00 | 0.00 | 71 | 1015.3 |
| 20260831151017 | 82 | 135 | 3.0 | 9.0 | 0.00 | 0.00 | 0.00 | 73 | 1015.3 |
| 20260831150039 | 81 | 135 | 3.0 | 7.0 | 0.00 | 0.00 | 0.00 | 77 | 1015.3 |
| 20260831145038 | 80 | 135 | 3.0 | 11.0 | 0.00 | 0.00 | 0.00 | 78 | 1015.1 |
| 20260831144038 | 79 | 135 | 3.0 | 9.0 | 0.00 | 0.00 | 0.00 | 80 | 1015.0 |
| 20260831143018 | 78 | 135 | 2.0 | 9.0 | 0.00 | 0.00 | 0.00 | 84 | 1015.0 |
| 20260831142018 | 77 | 158 | 3.0 | 7.0 | 0.00 | 0.00 | 0.00 | 86 | 1015.1 |
| 20260831141017 | 76 | 135 | 2.0 | 6.0 | 0.00 | 0.00 | 0.00 | 88 | 1015.0 |
| 20260831140017 | 76 | 135 | 2.0 | 9.0 | 0.00 | 0.00 | 0.00 | 90 | 1015.0 |
| 20260831135038 | 75 | 135 | 2.0 | 8.0 | 0.00 | 0.00 | 0.00 | 91 | 1014.9 |
| 20260831134057 | 75 | 135 | 2.0 | 9.0 | 0.00 | 0.00 | 0.00 | 92 | 1014.9 |
| 20260831133017 | 75 | 135 | 2.0 | 7.0 | 0.00 | 0.00 | 0.00 | 92 | 1015.0 |
| 20260831132017 | 74 | 135 | 2.0 | 5.0 | 0.00 | 0.00 | 0.00 | 93 | 1015.0 |
| 20260831131017 | 74 | 158 | 1.0 | 6.0 | 0.00 | 0.00 | 0.00 | 93 | 1015.0 |
| 20260831130037 | 74 | 135 | 1.0 | 5.0 | 0.00 | 0.00 | 0.00 | 93 | 1015.0 |
| 20260831125017 | 74 | 135 | 1.0 | 4.0 | 0.00 | 0.00 | 0.00 | 93 | 1014.9 |
| 20260831124017 | 74 | 158 | 1.0 | 4.0 | 0.00 | 0.00 | 0.00 | 93 | 1014.7 |
| 20260831123057 | 73 | 158 | 1.0 | 6.0 | 0.00 | 0.00 | 0.00 | 92 | 1014.9 |
| 20260831122017 | 73 | 158 | 1.0 | 4.0 | 0.00 | 0.00 | 0.00 | 92 | 1014.8 |
| 20260831121017 | 74 | 135 | 1.0 | 4.0 | 0.00 | 0.00 | 0.00 | 92 | 1014.8 |
| 20260831120017 | 74 | 158 | 1.0 | 4.0 | 0.00 | 0.00 | 0.00 | 92 | 1014.7 |
| 20260831115037 | 74 | 135 | 1.0 | 4.0 | 0.00 | 0.00 | 0.00 | 92 | 1014.9 |
| 20260831114017 | 74 | 135 | 1.0 | 6.0 | 0.00 | 0.00 | 0.00 | 91 | 1014.7 |
| 20260831113038 | 74 | 158 | 1.0 | 6.0 | 0.00 | 0.00 | 0.00 | 91 | 1015.0 |
| 20260831112017 | 74 | 135 | 1.0 | 5.0 | 0.00 | 0.00 | 0.00 | 91 | 1014.9 |
| 20260831111017 | 74 | 135 | 1.0 | 4.0 | 0.00 | 0.00 | 0.00 | 91 | 1015.0 |
| 20260831110018 | 74 | 135 | 1.0 | 6.0 | 0.00 | 0.00 | 0.00 | 90 | 1014.9 |
| 20260831105017 | 74 | 158 | 1.0 | 4.0 | 0.00 | 0.00 | 0.00 | 90 | 1015.0 |
| 20260831104017 | 74 | 135 | 2.0 | 6.0 | 0.00 | 0.00 | 0.00 | 90 | 1015.1 |
| 20260831103018 | 74 | 158 | 2.0 | 4.0 | 0.00 | 0.00 | 0.00 | 90 | 1015.1 |
| 20260831102017 | 74 | 113 | 2.0 | 5.0 | 0.00 | 0.00 | 0.00 | 90 | 1015.2 |
| 20260831101038 | 74 | 135 | 1.0 | 7.0 | 0.00 | 0.00 | 0.00 | 89 | 1015.2 |
| 20260831100017 | 74 | 135 | 1.0 | 6.0 | 0.00 | 0.00 | 0.00 | 89 | 1015.1 |
| 20260831095017 | 74 | 158 | 2.0 | 5.0 | 0.00 | 0.00 | 0.00 | 89 | 1015.1 |
| 20260831094016 | 74 | 180 | 2.0 | 7.0 | 0.00 | 0.00 | 0.00 | 88 | 1014.9 |
| 20260831093017 | 74 | 135 | 2.0 | 10.0 | 0.00 | 0.00 | 0.00 | 88 | 1014.8 |
| 20260831092017 | 75 | 135 | 2.0 | 5.0 | 0.00 | 0.00 | 0.00 | 87 | 1014.9 |
| 20260831091037 | 75 | 135 | 2.0 | 7.0 | 0.00 | 0.00 | 0.00 | 87 | 1014.9 |
| 20260831090016 | 75 | 135 | 2.0 | 6.0 | 0.00 | 0.00 | 0.00 | 86 | 1015.0 |
| 20260831085017 | 75 | 158 | 2.0 | 6.0 | 0.00 | 0.00 | 0.00 | 85 | 1014.9 |
| 20260831084018 | 75 | 135 | 2.0 | 6.0 | 0.00 | 0.00 | 0.00 | 85 | 1015.0 |
| 20260831083041 | 76 | 113 | 2.0 | 6.0 | 0.00 | 0.00 | 0.00 | 84 | 1014.9 |
| 20260831082037 | 76 | 135 | 2.0 | 7.0 | 0.00 | 0.00 | 0.00 | 84 | 1015.0 |
| 20260831081016 | 76 | 135 | 2.0 | 7.0 | 0.00 | 0.00 | 0.00 | 82 | 1015.1 |
| 20260831080016 | 76 | 135 | 1.0 | 7.0 | 0.00 | 0.00 | 0.00 | 81 | 1015.1 |
| 20260831075016 | 76 | 135 | 2.0 | 4.0 | 0.00 | 0.00 | 0.00 | 80 | 1015.3 |
| 20260831074016 | 76 | 158 | 2.0 | 7.0 | 0.00 | 0.00 | 0.00 | 80 | 1015.3 |
| 20260831073017 | 77 | 135 | 2.0 | 7.0 | 0.00 | 0.00 | 0.00 | 79 | 1015.4 |
| 20260831072016 | 77 | 135 | 2.0 | 6.0 | 0.00 | 0.00 | 0.00 | 79 | 1015.4 |
| 20260831071016 | 77 | 158 | 2.0 | 6.0 | 0.00 | 0.00 | 0.00 | 78 | 1015.3 |
| 20260831070016 | 77 | 135 | 2.0 | 6.0 | 0.00 | 0.00 | 0.00 | 77 | 1015.2 |
| 20260831065017 | 77 | 135 | 1.0 | 5.0 | 0.00 | 0.00 | 0.00 | 77 | 1015.1 |
| 20260831064016 | 77 | 135 | 1.0 | 5.0 | 0.00 | 0.00 | 0.00 | 77 | 1015.2 |
| 20260831063016 | 77 | 158 | 1.0 | 4.0 | 0.00 | 0.00 | 0.00 | 77 | 1015.2 |
| 20260831062016 | 77 | 158 | 1.0 | 5.0 | 0.00 | 0.00 | 0.00 | 77 | 1015.1 |
| 20260831061037 | 77 | 113 | 1.0 | 3.0 | 0.00 | 0.00 | 0.00 | 76 | 1015.2 |
| 20260831060018 | 77 | 0.0 | 3.0 | 0.00 | 0.00 | 0.00 | 76 | 1014.9 | |
| 20260831055018 | 77 | 135 | 1.0 | 5.0 | 0.00 | 0.00 | 0.00 | 77 | 1014.9 |
| 20260831054018 | 77 | 0.0 | 3.0 | 0.00 | 0.00 | 0.00 | 77 | 1014.8 | |
| 20260831053019 | 76 | 0.0 | 2.0 | 0.00 | 0.00 | 0.00 | 77 | 1014.5 | |
| 20260831052038 | 76 | 0.0 | 0.0 | 0.00 | 0.00 | 0.00 | 76 | 1014.6 | |
| 20260831051019 | 76 | 0.0 | 1.0 | 0.00 | 0.00 | 0.00 | 75 | 1014.4 | |
| 20260831050016 | 77 | 0.0 | 1.0 | 0.00 | 0.00 | 0.00 | 72 | 1014.3 | |
| 20260831045018 | 77 | 0.0 | 3.0 | 0.00 | 0.00 | 0.00 | 72 | 1014.2 | |
| 20260831044017 | 77 | 0.0 | 0.0 | 0.00 | 0.00 | 0.00 | 71 | 1014.1 | |
| 20260831043018 | 77 | 0.0 | 0.0 | 0.00 | 0.00 | 0.00 | 71 | 1013.9 | |
| 20260831042017 | 77 | 0.0 | 0.0 | 0.00 | 0.00 | 0.00 | 70 | 1013.9 | |
| 20260831041018 | 77 | 0.0 | 0.0 | 0.00 | 0.00 | 0.00 | 69 | 1013.8 |